Location: Haliburton Scout Reserve
(45.0900°N, 78.3200°W)
Time: 01:13:02
(UTC-05:00)

Vanguard 1 - Visible Passes

Search period start: 06 February 2023 00:00
Search period end: 16 February 2023 00:00
Orbit: 650 x 3831 km, 34.2° (Epoch: 05 February)

Date Brightness Start Highest point End Pass type
(mag) Time Alt. Az. Time Alt. Az. Time Alt. Az.
06 Feb 11.5 04:55:33 26° SSW 04:58:34 36° SSE 05:08:34 10° E visible
07 Feb 12.6 03:02:27 12° ESE 03:02:27 12° ESE 03:03:49 10° ESE visible
07 Feb 11.5 05:15:08 24° SW 05:18:53 40° SSE 05:29:32 10° ESE visible
08 Feb 12.3 03:22:00 18° SE 03:22:00 18° SE 03:25:23 10° ESE visible
08 Feb 11.6 05:34:41 20° SW 05:39:17 42° S 05:50:26 10° ESE visible
09 Feb 11.9 03:41:33 23° SE 03:41:33 23° SE 03:46:33 10° ESE visible
09 Feb 11.7 05:54:14 16° WSW 05:59:45 42° S 06:11:15 10° ESE visible
10 Feb 11.5 04:01:04 29° SSE 04:01:04 29° SSE 04:07:32 10° ESE visible
10 Feb 11.8 06:13:45 11° WSW 06:20:16 41° S 06:31:56 10° ESE visible
11 Feb 11.2 04:20:35 33° SSE 04:20:35 33° SSE 04:28:24 10° ESE visible
11 Feb 12.0 06:34:00 10° WSW 06:40:49 38° S 06:52:28 10° SE visible
12 Feb 11.0 04:40:07 34° S 04:40:57 35° S 04:49:10 10° ESE visible
13 Feb 11.0 04:59:37 31° SSW 05:01:23 35° S 05:09:51 10° ESE visible
14 Feb 12.5 03:06:28 13° ESE 03:06:28 13° ESE 03:07:27 10° ESE visible
14 Feb 11.2 05:19:09 25° SW 05:21:50 33° S 05:30:24 10° ESE visible
15 Feb 12.1 03:26:00 17° SE 03:26:00 17° SE 03:28:12 10° ESE visible
15 Feb 11.4 05:38:41 19° SW 05:42:20 30° S 05:50:47 10° SE visible
